[[{"header":{"parameterUnit":"m.s-1","parameterCategory":1,"la1":30.2991,"la2":30.254,"lo1":-89.0895,"lo2":-89.0444,"dy":0.0017,"dx":0.0017,"nx":28,"ny":28,"refTime":"2024-02-17T09:00:00:Z","depth":0,"parameterNumber":2,"parameterNumberName":"U-component_of_WINDS"},"data":[0,0,0,0,0,0,0,0,0,0,0,0,0,0,0,0,0,0,0,0,0,0,0,0,0,0,0,0,0,0,0,0,0,0,0,0,0,0,0,0,0,0,0,0,0,0,0,0,0,0,0,0,0,0,0,0,0,0,0.6155,0.6155,0,0.612,0.612,0.6119,0.6101,0.6101,0.6101,0.6101,0.6064,0.6063,0.6062,0,0,0,0,0,0,0,0,0,0,0,0,0,0.6206,0.6205,0.6155,0.6155,0.6154,0.612,0.612,0.6119,0.6101,0.6101,0.6101,0.6101,0.6064,0.6063,0.6061,0,0,0,0,0,0,0,0,0,0,0,0,0,0.6179,0.6205,0.6155,0.6141,0.614,0.612,0.612,0.6119,0.6101,0.6101,0.6101,0.6101,0.6064,0.6063,0.6061,0.6053,0,0,0.6057,0.6056,0,0,0,0,0,0,0,0,0.618,0.6177,0.6144,0.6142,0.614,0.6115,0.6124,0.6097,0.6101,0.6116,0.6101,0.6101,0.6081,0.6078,0.6071,0.6051,0.6049,0.6057,0.6056,0.6055,0.6055,0,0,0,0,0,0,0,0.6182,0.6178,0.6141,0.6143,0.6141,0.6136,0.6133,0.6119,0.6099,0.6114,0.6113,0.6109,0.608,0.6073,0.607,0.6049,0.6057,0.6055,0.6055,0.6054,0.6021,0.6021,0,0,0,0,0,0,0.6186,0.618,0.6142,0.614,0.6161,0.6136,0.6131,0.6123,0.6099,0.6095,0.6109,0.6109,0.6075,0.6072,0.6069,0.6057,0.6055,0.6054,0.6053,0.6021,0.6021,0.6021,0,0,0,0,0,0,0.6188,0.6183,0.6144,0.616,0.6154,0.6135,0.6126,0.6122,0.6115,0.6095,0.6091,0.6106,0.6075,0.6071,0.6057,0.6056,0.6053,0.6052,0.6021,0.6021,0.6021,0.6034,0,0,0,0,0,0,0.6189,0.6184,0.618,0.616,0.6154,0.6133,0.6126,0.6122,0.6113,0.6112,0.6091,0.6087,0.6075,0.6059,0.6056,0.6054,0.6051,0.6021,0.6021,0.6021,0.6034,0.6035,0.6036,0,0,0,0,0,0.6191,0.6185,0.618,0.6176,0.6149,0.6133,0.6129,0.6116,0.6113,0.611,0.6097,0.6088,0.6057,0.6058,0.6054,0.6051,0.6021,0.6021,0.6021,0.6034,0.6035,0.6036,0,0,0,0,0,0,0.6206,0.6182,0.6177,0.6164,0.6151,0.613,0.6125,0.6117,0.6104,0.6103,0.6086,0.6081,0.6069,0.6059,0.6061,0.6042,0.6038,0.6037,0.6049,0.605,0.6051,0.6053,0.6049,0,0,0,0,0,0.6207,0.6197,0.6177,0.6168,0.6161,0.6145,0.6137,0.6128,0.6113,0.6107,0.6093,0.6079,0.6066,0.6057,0.6044,0.6033,0.6028,0.6029,0.603,0.6031,0.603,0.6023,0.6024,0.6021,0.6021,0.6021,0,0,0.6211,0.6197,0.6191,0.617,0.6159,0.6148,0.614,0.6128,0.612,0.6105,0.6091,0.6081,0.6064,0.6051,0.6045,0.6042,0.603,0.6031,0.6031,0.603,0.6023,0.6024,0.6024,0.6021,0.6021,0.6021,0,0,0.6212,0.62,0.6191,0.618,0.6164,0.6152,0.6151,0.6131,0.6124,0.611,0.6099,0.6089,0.6066,0.6055,0.6046,0.6044,0.6036,0.604,0.6044,0.6038,0.6039,0.6039,0.6038,0.6038,0.604,0.604,0.604,0,0.6218,0.6201,0.6188,0.6177,0.6169,0.6156,0.6147,0.6136,0.6116,0.611,0.6108,0.608,0.6068,0.6053,0.6052,0.6046,0.6043,0.6042,0.604,0.604,0.604,0.6039,0.6038,0.604,0.604,0.604,0.604,0,0.621,0.6199,0.6194,0.6175,0.6166,0.6156,0.6141,0.6133,0.6125,0.6115,0.6101,0.6086,0.607,0.6066,0.6057,0.6049,0.6048,0.6043,0.6038,0.6041,0.604,0.6039,0.6041,0.6041,0.6041,0.6041,0,0,0.6218,0.6193,0.6191,0.6183,0.6164,0.6155,0.6145,0.613,0.6123,0.611,0.6101,0.6083,0.6079,0.6069,0.6059,0.6054,0.6053,0.6049,0.6048,0.605,0.6044,0.6048,0.6048,0.6048,0.6048,0.6048,0.6045,0,0.6216,0.6197,0.6185,0.6172,0.6161,0.6149,0.6141,0.6128,0.6118,0.6107,0.6096,0.6084,0.6079,0.6073,0.6067,0.6055,0.6052,0.6055,0.6039,0.6039,0.6043,0.6047,0.6051,0.6049,0.6045,0.6045,0.6045,0,0.621,0.6198,0.6184,0.6167,0.6162,0.6154,0.614,0.613,0.6116,0.6109,0.6099,0.6089,0.6078,0.6075,0.6059,0.6062,0.6055,0.6048,0.6047,0.6045,0.6042,0.6044,0.6048,0.6048,0.6044,0.6044,0.6044,0,0.6218,0.6198,0.6186,0.618,0.6159,0.6154,0.6146,0.6131,0.6123,0.6111,0.6105,0.6091,0.6084,0.6073,0.606,0.6059,0.6046,0.6042,0.604,0.604,0.6037,0.6037,0.604,0.6033,0.6033,0.6033,0.6033,0,0.6216,0.6208,0.6189,0.6183,0.6173,0.6159,0.615,0.614,0.6128,0.6119,0.6108,0.6099,0.6083,0.6073,0.6062,0.6051,0.6048,0.6042,0.6039,0.6043,0.6043,0.6037,0.6037,0.6033,0.6033,0.6033,0.6033,0,0.6222,0.621,0.6197,0.6179,0.6174,0.6168,0.6153,0.6146,0.6135,0.6124,0.6121,0.6105,0.6092,0.6078,0.6061,0.6054,0.6044,0.604,0.6049,0.6047,0.6046,0.6046,0.6044,0.6043,0.6038,0.6038,0.6038,0,0.6222,0.6215,0.6197,0.6191,0.6182,0.6172,0.6164,0.6151,0.6143,0.6126,0.6121,0.6108,0.6097,0.6077,0.6064,0.6051,0.6046,0.6047,0.6044,0.6048,0.6046,0.6047,0.6046,0.6047,0.6047,0.6047,0.6047,0,0.6223,0.6217,0.6206,0.6194,0.6185,0.6174,0.6162,0.6158,0.6142,0.6134,0.6121,0.6112,0.6095,0.6082,0.6068,0.6058,0.605,0.6049,0.6047,0.605,0.6056,0.6053,0.605,0.6048,0.6048,0.6048,0.6048,0.6048,0.6226,0.6219,0.6206,0.6194,0.6185,0.6174,0.6167,0.6157,0.6146,0.6131,0.6124,0.6111,0.6098,0.6078,0.6069,0.6059,0.6056,0.6054,0.6054,0.6053,0.6054,0.6058,0.6056,0.6056,0.6056,0.6056,0.6056,0,0.6226,0.6217,0.6206,0.6191,0.6182,0.6176,0.6164,0.6157,0.6146,0.6134,0.6123,0.6109,0.6097,0.6083,0.607,0.6064,0.606,0.6061,0.6061,0.6059,0.6057,0.606,0.6065,0.6065,0.6065,0.6065,0.6065,0.6065,0.6225,0.6214,0.6207,0.6192,0.6182,0.617,0.6164,0.6154,0.6145,0.613,0.612,0.6111,0.6098,0.6084,0.6073,0.6069,0.6065,0.6067,0.6062,0.606,0.6059,0.6059,0.6061,0.6066,0.6066,0.6064,0.6064,0.6064]},{"header":{"parameterUnit":"m.s-1","parameterCategory":1,"la1":30.2991,"la2":30.254,"lo1":-89.0895,"lo2":-89.0444,"dy":0.0017,"dx":0.0017,"nx":28,"ny":28,"refTime":"2024-02-17T09:00:00:Z","depth":0,"parameterNumber":3,"parameterNumberName":"V-component_of_WINDS"},"data":[0,0,0,0,0,0,0,0,0,0,0,0,0,0,0,0,0,0,0,0,0,0,0,0,0,0,0,0,0,0,0,0,0,0,0,0,0,0,0,0,0,0,0,0,0,0,0,0,0,0,0,0,0,0,0,0,0,0,-4.351,-4.3511,0,-4.3653,-4.3654,-4.3656,-4.3626,-4.3623,-4.362,-4.3618,-4.3761,-4.3767,-4.3773,0,0,0,0,0,0,0,0,0,0,0,0,0,-4.3207,-4.3213,-4.351,-4.3512,-4.3513,-4.3653,-4.3654,-4.3656,-4.3626,-4.3623,-4.362,-4.3617,-4.3759,-4.3766,-4.3774,0,0,0,0,0,0,0,0,0,0,0,0,0,-4.3343,-4.3215,-4.3509,-4.3515,-4.3517,-4.3652,-4.3655,-4.3657,-4.3627,-4.3623,-4.3619,-4.3615,-4.3756,-4.3765,-4.3775,-4.3912,0,0,-4.3803,-4.3807,0,0,0,0,0,0,0,0,-4.3336,-4.3354,-4.3513,-4.3515,-4.3517,-4.3617,-4.36,-4.3742,-4.3628,-4.3585,-4.3618,-4.3613,-4.3716,-4.3728,-4.3764,-4.3918,-4.3925,-4.3804,-4.381,-4.3814,-4.3816,0,0,0,0,0,0,0,-4.3326,-4.3348,-4.3566,-4.3515,-4.3518,-4.3509,-4.3524,-4.3627,-4.3671,-4.3589,-4.3587,-4.3604,-4.3717,-4.3755,-4.3767,-4.3927,-4.3804,-4.3812,-4.3818,-4.3822,-4.42,-4.4204,0,0,0,0,0,0,-4.3315,-4.334,-4.3562,-4.3571,-4.3415,-4.3518,-4.3535,-4.3589,-4.367,-4.3678,-4.3607,-4.3602,-4.3741,-4.3756,-4.3772,-4.3938,-4.3814,-4.3823,-4.3828,-4.4196,-4.4201,-4.4206,0,0,0,0,0,0,-4.3309,-4.3335,-4.3556,-4.3455,-4.3483,-4.3528,-4.3589,-4.3594,-4.3633,-4.3684,-4.3691,-4.3639,-4.3738,-4.3759,-4.3877,-4.3942,-4.3827,-4.3835,-4.4191,-4.4197,-4.4204,-4.427,0,0,0,0,0,0,-4.33,-4.3333,-4.3387,-4.3457,-4.3488,-4.366,-4.3593,-4.36,-4.3649,-4.3644,-4.3715,-4.3723,-4.3737,-4.3864,-4.3887,-4.3953,-4.3843,-4.4185,-4.4194,-4.4201,-4.4262,-4.4278,-4.4292,0,0,0,0,0,-4.3289,-4.3399,-4.3389,-4.3416,-4.3556,-4.3664,-4.3682,-4.3696,-4.3655,-4.3708,-4.3741,-4.3721,-4.3931,-4.3876,-4.3902,-4.3972,-4.4181,-4.4191,-4.4201,-4.4256,-4.4275,-4.4291,0,0,0,0,0,0,-4.3334,-4.3408,-4.3398,-4.3534,-4.3593,-4.3659,-4.3727,-4.3716,-4.3788,-4.3779,-4.3793,-4.3809,-4.393,-4.3963,-4.39,-4.4108,-4.405,-4.4066,-4.4083,-4.4102,-4.4116,-4.4106,-4.385,0,0,0,0,0,-4.336,-4.3443,-4.3502,-4.3616,-4.3647,-4.3682,-4.3729,-4.3735,-4.3797,-4.3821,-4.3863,-4.3922,-4.4001,-4.4053,-4.4129,-4.4267,-4.4281,-4.4328,-4.4342,-4.4354,-4.4367,-4.4442,-4.4463,-4.4239,-4.4239,-4.4238,0,0,-4.3414,-4.3464,-4.3516,-4.3626,-4.3673,-4.3757,-4.3703,-4.3795,-4.3857,-4.3835,-4.395,-4.3982,-4.4049,-4.4178,-4.4237,-4.4209,-4.4433,-4.4367,-4.4376,-4.4383,-4.4454,-4.4476,-4.4495,-4.4245,-4.4244,-4.4243,0,0,-4.3555,-4.3602,-4.3702,-4.375,-4.3821,-4.3844,-4.3868,-4.3936,-4.3957,-4.4073,-4.4058,-4.4131,-4.4268,-4.4316,-4.4358,-4.4518,-4.4502,-4.4542,-4.4619,-4.4691,-4.4709,-4.4725,-4.4781,-4.4802,-4.4555,-4.4555,-4.4555,0,-4.3612,-4.374,-4.3754,-4.3848,-4.3896,-4.3881,-4.3982,-4.4027,-4.4119,-4.4153,-4.4121,-4.4292,-4.4335,-4.4475,-4.4514,-4.4549,-4.4576,-4.4534,-4.4706,-4.4722,-4.4736,-4.479,-4.4812,-4.456,-4.4559,-4.4559,-4.4558,0,-4.3807,-4.3896,-4.3968,-4.4059,-4.4115,-4.4212,-4.4239,-4.4295,-4.4296,-4.4322,-4.4439,-4.4491,-4.4577,-4.4611,-4.4612,-4.4751,-4.4731,-4.4702,-4.4644,-4.4762,-4.4813,-4.4834,-4.4566,-4.4564,-4.4563,-4.4562,0,0,-4.398,-4.4078,-4.4104,-4.4145,-4.4223,-4.4291,-4.4386,-4.4472,-4.4519,-4.4583,-4.4662,-4.4778,-4.4752,-4.48,-4.4807,-4.487,-4.4993,-4.4834,-4.4835,-4.4861,-4.5148,-4.517,-4.5193,-4.4983,-4.4987,-4.499,-4.5143,0,-4.4128,-4.4298,-4.4313,-4.4465,-4.4547,-4.4533,-4.4616,-4.4672,-4.4699,-4.4771,-4.4799,-4.4881,-4.4841,-4.487,-4.4932,-4.4965,-4.5051,-4.4954,-4.5056,-4.5059,-4.504,-4.522,-4.5243,-4.5385,-4.5163,-4.5166,-4.5168,0,-4.4324,-4.4395,-4.4555,-4.4622,-4.4656,-4.4731,-4.481,-4.488,-4.4943,-4.4957,-4.5011,-4.5009,-4.5106,-4.5044,-4.5177,-4.5111,-4.5153,-4.5175,-4.5181,-4.5191,-4.5121,-4.5235,-4.543,-4.5451,-4.52,-4.5197,-4.5195,0,-4.4434,-4.457,-4.4683,-4.4718,-4.4799,-4.4851,-4.4887,-4.4946,-4.4996,-4.5065,-4.5097,-4.5176,-4.5219,-4.528,-4.5298,-4.5251,-4.543,-4.537,-4.5444,-4.5444,-4.5483,-4.548,-4.5687,-4.551,-4.551,-4.551,-4.5509,0,-4.4598,-4.4696,-4.4734,-4.4803,-4.4913,-4.4929,-4.5037,-4.5069,-4.5122,-4.5197,-4.5189,-4.5259,-4.528,-4.5353,-4.5368,-4.5476,-4.5495,-4.5509,-4.5512,-4.551,-4.5508,-4.5538,-4.5528,-4.5515,-4.5514,-4.5513,-4.5512,0,-4.4739,-4.4768,-4.4891,-4.4957,-4.4976,-4.5054,-4.511,-4.5176,-4.5202,-4.5296,-4.532,-4.5359,-4.5445,-4.547,-4.5572,-4.5582,-4.5709,-4.5702,-4.5688,-4.5688,-4.5761,-4.5754,-4.5995,-4.6027,-4.5829,-4.5831,-4.5832,0,-4.4842,-4.4917,-4.4992,-4.5042,-4.508,-4.5161,-4.5213,-4.5231,-4.5285,-4.5362,-4.5419,-4.5505,-4.5574,-4.5712,-4.5749,-4.5827,-4.5823,-4.5902,-4.5834,-4.583,-4.5823,-4.5819,-4.5826,-4.5914,-4.5916,-4.5918,-4.5919,0,-4.5021,-4.5031,-4.5106,-4.5187,-4.5249,-4.5313,-4.5374,-4.5416,-4.5443,-4.5503,-4.5592,-4.5646,-4.5751,-4.5836,-4.5915,-4.595,-4.594,-4.594,-4.5962,-4.596,-4.5949,-4.5956,-4.5723,-4.5935,-4.5933,-4.5932,-4.5931,-4.5931,-4.5146,-4.5212,-4.5275,-4.5359,-4.5407,-4.5465,-4.5531,-4.5565,-4.564,-4.5728,-4.5734,-4.583,-4.589,-4.5996,-4.6035,-4.6109,-4.6086,-4.6117,-4.6125,-4.6132,-4.6138,-4.5937,-4.6124,-4.6124,-4.6123,-4.6123,-4.6123,0,-4.5324,-4.5364,-4.5441,-4.5528,-4.5593,-4.5579,-4.5646,-4.5701,-4.5786,-4.5844,-4.5913,-4.6014,-4.6096,-4.614,-4.6221,-4.6272,-4.6269,-4.6292,-4.6289,-4.6297,-4.6155,-4.6128,-4.6294,-4.6294,-4.6294,-4.6294,-4.6293,-4.6293,-4.5424,-4.5536,-4.5554,-4.5689,-4.5728,-4.5823,-4.5863,-4.5916,-4.5962,-4.6076,-4.6145,-4.6173,-4.6225,-4.6309,-4.6383,-4.6394,-4.6424,-4.6451,-4.6458,-4.6324,-4.6307,-4.629,-4.6265,-4.6457,-4.6457,-4.6594,-4.6596,-4.6597]}]]